Espace membre
Imprimable
Wissant, 09-10/09/2017, BEL - Trail de la Côte d'Opale
Liste des rapports > 7km - Classement
Recherche: Page: [1]
99 Entrées
 
Les réclamations ne sont plus acceptées, les résultats sont considérés comme définitifs.
RangNrLicenceNomAgeIOCEquipeTempsTkmMoy.ScrLocalité
1.11409FNOREL Marianne42FRA41:045:52 10.2320
2.11341FLENS Anne-Catherine44BEL47:096:45 8.9152
3.11006FBONNIERE Caroline46DECATHLON ST-MARTIN47:226:46 8.8755
4.11355FDUVIVIER Caroline40FRA48:116:53 8.7259
5.11244FDE VETH Anne-Françoise42BEL48:226:55 8.6861
6.11314FAMORISON Ingrid47FRAVERTIGO48:446:58 8.6264
7.11387FORRIOLS Charlotte45FRA49:127:02 8.5471
8.11158FBOSSIER Celine40FRA49:377:06 8.4780
9.11220FHENNEBERT Nadege42FRA50:567:17 8.2596
10.11174FSCHOUTEETEN Nancy44FRA50:577:17 8.2497
11.11153FPATEY Anita49FRA51:147:20 8.20100
12.11116FLANNOY Nathalie45FRA51:477:24 8.11109
13.11350FVIARD Adeline41FRA51:487:24 8.11110
14.11093FHEIJMANS Isabelle41BEL52:427:32 7.97121
15.11152FROHART Marion41FRA53:097:36 7.90126
16.11216FDELCROIX Nathalie44FRAASUD53:537:42 7.80137
17.11223FLECLERCQ Sophie42FRA54:197:46 7.73140
18.11222FVAN STAEN Muriel45FRA54:337:48 7.70148
19.11146FDERDOUR Zeljka40FRARUNDAYS55:157:54 7.60155
20.11321FJOCKIN Julie40FRADES RÎVÎRES55:247:55 7.58158
21.11182FDE PRAT Helene40FRA55:507:59 7.52164
22.11190FJOSSIN Axelle49BEL55:548:00 7.51166
23.11017FFIEVET Valérie49FRA56:038:01 7.49177
24.11213FBOULLET Peggy41FRA56:078:01 7.49180
25.11282FFOURNIER Anne46FRA56:228:04 7.45183
26.11004FLINLEY Caroline4156:428:06 7.41191
27.11103FFILLIETTE Mélanie41FRA56:498:07 7.39192
28.11126FGAUBLOMME Tessa41BEL57:098:10 7.35201
29.11095FMUSEREAU Kate44FRA57:208:12 7.33205
30.11371FLEFEVER Gabrielle41FRA57:318:13 7.30208
31.11240FBOVY Sophie48BEL58:368:23 7.17225
32.11301FGREUSE Marjorie46FRA58:558:25 7.13228
33.11177FBOULANGER Virginie46FRA58:588:26 7.12229
34.11211FMOULY Isabelle48FRA58:588:26 7.12230
35.9086FCHIARENZA Laurence48FRA59:248:30 7.07235
36.11224FBOSSUT Virginie43FRAMAC DU CH'NORD59:278:30 7.07236
37.11361FLEQUENNE Sandra43BELPIPAIX59:518:33 7.02241
38.11316FCRISCENZO Pina44BELBOUBIET TEAM59:588:34 7.01245
39.11218FCUISSARD Barbara41FRA1:00:088:36 6.99246
40.11391FGAUDEFROY Stephanie43FRA1:00:108:36 6.98249
41.11328FDUTILLEUL Corinne46BELSPIBO1:00:288:39 6.95254
42.11168FDEVASSINE Valerie48FRA1:01:178:46 6.85262
43.11229FFEDORENKO Stéphanie43FRA1:01:528:51 6.79269
44.11256FHAQUETTE Severine45FRA1:02:388:57 6.71287
45.11546FVANDEWYNCKEL Dorothée42FRA1:02:408:58 6.70288
46.11295FVANDERBÈQUE Catherine40FRA1:02:428:58 6.70289
47.11323FMARTIN Muriel45FRA1:02:448:58 6.70290
48.9444FBEAUMEISTER Anne44FRA1:02:559:00 6.68292
49.111191937116FSAINT-GEORGES Nadege40FRASTADE LONGUENESSOIS1:02:579:00 6.67293
50.11165FDANEL Fanny42FRA1:03:209:03 6.63297
51.11130FBOIDIN Celine42FRARUN ET BIKE BACHY1:03:229:04 6.63300
52.11175FAVEZ Agnes45FRARUN AND BIKE BACHY1:03:229:04 6.63301
53.11088FGARRIDO Sophie45FRATRANSPOLE1:03:329:05 6.61305
54.11302FFLOUQUET Peggy45FRA1:03:349:05 6.61306
55.11514FCORNART Gaelle41FRA1:03:529:08 6.58310
56.11110FFAUVARQUE Céline40FRA1:04:149:11 6.54314
57.11141FLESCROART Priscilla40FRA1:04:149:11 6.54315
58.11303FQUIEF Odile49FRA1:04:219:12 6.53316
59.11195FBOUCHAT Fabienne48BEL1:04:579:17 6.47319
60.11028FCHAPRON Delphine42FRA1:05:029:18 6.46321
61.11083FTRISTRAM Sabrina41FRASABRINA1:05:119:19 6.44322
62.11390FCAMPION Isabelle45FRA1:05:409:23 6.40324
63.11157FDONGUY Mélanie40FRA1:05:569:26 6.37330
64.11385FHANS Christine45BEL1:06:229:29 6.33334
65.11133FGELLEZ Anne-Sophie40FRA1:06:309:30 6.32338
66.11369FCHEVALIER Cecile42FRASPHO1:06:309:30 6.32339
67.11254FDUBRUQUE Emmanuelle40FRA1:06:339:31 6.31341
68.11255FLEROUX Anne-Marie46FRA1:06:339:31 6.31342
69.11007FAMADORO Vanessa42BEL1:07:099:36 6.25345
70.11592FVAN DROOGHENBROECK Barbara41FRALES IMPALAS1:07:319:39 6.22347
71.11245FJAUNIAUX Caroline43FRA1:07:359:40 6.21350
72.11358FCARON Peggy42FRA1:07:369:40 6.21351
73.11079FLETURQUE Anne46FRA1:08:079:44 6.17354
74.11349FFRENNET Ingrid46BEL1:08:109:45 6.16355
75.11049FRUYFFELAERE Caroline42FRA1:08:289:47 6.14359
76.11308FALGOED Frederique43BELJCL1:08:549:51 6.10365
77.11176FMIGNON Marie-Claude48FRA1:09:099:53 6.07368
78.11029FDEPUYDT Stephanie42FRA1:10:0810:02 5.99375
79.11027FCHAPRON Laure44FRA1:10:1710:03 5.98376
80.11091FMEURIS Veronique48BEL1:10:2410:04 5.97377
81.11084FDELHAYE Anne48BEL1:10:2510:04 5.97378
82.11399FHAMIMI Christine45FRAFRESNES RUN TEAM1:10:3910:06 5.95380
83.11275FDECARPENTRIE Anne-Sophie44BEL1:10:4510:07 5.94381
84.11166FDOUAY Celine40FRALES Z'AMIS COUREURS1:12:0910:19 5.82390
85.11253FBOUILLON Françoise49BELBOUFFIOUX PAS BO1:12:2410:21 5.80392
86.11074FGOEMINNE Annick49BEL1:12:2810:22 5.80393
87.9345FZACHOS Stiliani47FRA1:13:3010:30 5.71398
88.11518FGOSSART Carine46FRA1:13:5310:34 5.69400
89.11329FNAPIERALA Monika46FRAJCPMFFLV1:13:5710:34 5.68402
90.11048FJACQUERIE Ingrid44BELSPORT EVASION1:14:0610:36 5.67403
91.11395FLAMARRE Cathy41FRA1:16:1110:53 5.51408
92.11354FVANDEVYVRE Sophie49BELJCBLANDAIN1:16:2310:55 5.50409
93.11259FCAZIN Cathie49FRA1:16:3910:57 5.48412
94.11309FGOBIET Virginie41BELJOG IN ATTITUDE1:17:0911:02 5.44414
95.11378FJOURQUIN Muriel40BELLES POTES O MALTES1:17:4011:06 5.41420
96.11594FALEXIS Caroline44BEL1:22:2311:47 5.10430
97.11382FBOURLART Isabelle44FRA1:40:1714:20 4.19443
98.11094FSCHICKS Audrey41BEL2:29:0221:18 2.82445
DNF11136FMEVEL Claire41FRA
DNF: abandon; DSQ: disqualifié; Vitesse en km/h
Page: [1]